LogID,LogEntryDate,LogEntryTime,LogEntrySeconds,LogNotes,AFR,STFT,CurrentLTFT,CruiseLTFT,IdleLTFT,IPW,O2Sensor2,Load,AFRMAP,LoadTiming,TimingAdv,KnockSum,RPM,IDC,Baro,MAP,Boost,OmniMAP,OmniBoost,WGDC_Active,MAF,InVVTtarget,ExVVTtarget,InVVTactual,ExVVTactual,TPS,APP,IAT,WGDCCorr,Speed,Battery,ECT,MAT,MAPCalcs,IMAPCalcs,MAFCalcs,ChosenCalc,EthanolPercent,Custom
1,2019-05-27,11:35:39.22739,0.24489,,0,-0.5859375,-7.421875,-7.421875,-3.515625,2.7,0,67.1875,14.7,67.1875,30,0,2351.5625,5.291015625,14.35873626,13.7011398,-0.657596460000001,16.6353,2.27656374,0,2.05884,21.25,-1.25,20.625,-0.46875,27.0588235294118,27.3176470588235,75.2,0,33.561,14.22602,183.2,89.6,81.25,0,67.1875,67.1875,78.4313725490196,
2,2019-05-27,11:35:39.24286,0.26302,,0,-0.5859375,-7.421875,-7.421875,-3.515625,2.7,0,67.1875,14.7,67.1875,30,0,2359.375,5.30859375,14.35873626,13.7011398,-0.657596460000001,16.6353,2.27656374,0,2.05884,21.25,-1.25,20.625,-0.46875,27.0588235294118,27.3176470588235,75.2,0,33.561,14.22602,183.2,89.6,81.25,0,68.75,67.1875,78.8235294117647,
3,2019-05-27,11:35:39.27410,0.29326,,0,-0.5859375,-7.421875,-7.421875,-3.515625,2.7,0,67.1875,14.7,67.1875,30,0,2367.1875,5.326171875,14.35873626,13.6046529,-0.754083360000001,16.51815,2.15941374,0,2.25492,21.25,-1.25,20.625,-0.46875,27.0588235294118,27.3176470588235,75.2,0,33.561,14.22602,183.2,89.6,81.25,0,64.0625,67.1875,78.8235294117647,
4,2019-05-27,11:35:39.30537,0.33215,,14.3178,-0.9765625,-7.421875,-7.421875,-3.515625,2.6,0,67.1875,14.7,67.1875,31,0,2367.1875,5.12890625,14.35873626,13.6046529,-0.754083360000001,16.51815,2.15941374,0,2.25492,21.875,-1.875,20.625,-0.46875,27.0588235294118,27.3176470588235,75.2,0,33.561,14.22602,183.2,89.6,81.25,0,64.0625,67.1875,78.4313725490196,
5,2019-05-27,11:35:39.33658,0.35806,,14.3178,-0.9765625,-7.421875,-7.421875,-3.515625,2.6,0,67.1875,14.7,67.1875,31,0,2367.1875,5.12890625,14.35873626,13.508166,-0.850570260000001,16.401,2.04226374,0,2.039232,21.875,-1.875,20.625,-0.46875,27.0588235294118,27.3176470588235,75.2,0,33.561,14.22602,183.2,89.6,81.25,0,65.625,67.1875,78.4313725490196,
6,2019-05-27,11:35:39.36783,0.38194,,14.3178,-0.9765625,-7.421875,-7.421875,-3.515625,2.6,0,67.1875,14.7,67.1875,31,0,2375,5.14583333333333,14.35873626,13.508166,-0.850570260000001,16.401,2.04226374,0,2.039232,21.25,-3.125,20.9375,-0.3125,27.0588235294118,27.3176470588235,75.2,0,33.561,14.37268,183.2,89.6,81.25,0,67.1875,67.1875,78.4313725490196,
7,2019-05-27,11:35:39.39907,0.41828,,14.3178,-1.3671875,-7.421875,-7.421875,-3.515625,2.6,0,65.625,14.7,65.625,31,0,2375,5.14583333333333,14.35873626,13.508166,-0.850570260000001,16.401,2.04226374,0,2.098056,21.25,-3.125,20.9375,-0.3125,27.0588235294118,27.3176470588235,75.2,0,33.561,14.37268,183.2,89.6,81.25,0,67.1875,65.625,78.4313725490196,
8,2019-05-27,11:35:39.43031,0.44407,,14.3178,-1.3671875,-7.421875,-7.421875,-3.515625,2.6,0,65.625,14.7,65.625,31,0,2382.8125,5.16276041666667,14.35873626,13.508166,-0.850570260000001,16.401,2.04226374,0,2.098056,21.875,-4.375,21.25,-0.46875,25.4901960784314,24.7882352941176,75.2,0,33.561,14.37268,183.2,89.6,79.6875,0,59.375,64.0625,78.8235294117647,
9,2019-05-27,11:35:39.46155,0.48026,,14.3178,-1.3671875,-7.421875,-7.421875,-3.515625,2.5,0,65.625,14.7,64.0625,31,0,2382.8125,4.96419270833333,14.35873626,13.0257315,-1.33300476,15.81525,1.45651374,0,2.098056,21.875,-4.375,21.25,-0.46875,25.4901960784314,24.7882352941176,75.2,0,34.804,14.29935,183.2,89.6,76.5625,0,56.25,62.5,78.4313725490196,
10,2019-05-27,11:35:39.50842,0.5225,,14.7,-1.5625,-7.421875,-7.421875,-3.515625,2.3,0,62.5,14.7,62.5,32,0,2382.8125,4.56705729166667,14.35873626,13.0257315,-1.33300476,15.81525,1.45651374,0,2.098056,21.25,-10,21.25,-0.625,25.4901960784314,24.7882352941176,75.2,0,34.804,14.29935,183.2,89.6,71.875,23.4375,39.0625,59.375,78.4313725490196,
11,2019-05-27,11:35:39.53966,0.56495,,14.7,-1.5625,-7.421875,-7.421875,-3.515625,1.8,0,56.25,14.7,54.6875,35,0,2398.4375,3.59765625,14.35873626,11.9643756,-2.39436066,14.5266,0.16786374,0,2.117664,21.25,-10,21.25,-0.625,22.7450980392157,23.2705882352941,75.2,0,34.804,14.29935,183.2,89.6,64.0625,51.5625,64.0625,56.25,78.4313725490196,
12,2019-05-27,11:35:39.57090,0.59488,,14.7,-1.5625,-7.421875,-7.421875,-3.515625,2.2,0,56.25,14.7,57.8125,35,0,2390.625,4.3828125,14.35873626,11.9643756,-2.39436066,14.5266,0.16786374,0,2.117664,20.625,-10,21.25,-1.5625,22.7450980392157,23.2705882352941,75.2,0,34.804,14.29935,183.2,89.6,62.5,56.25,40.625,56.25,78.4313725490196,
13,2019-05-27,11:35:39.61777,0.64234,,14.7,-1.7578125,-7.421875,-7.421875,-3.515625,2.3,0,57.8125,14.7,56.25,33,0,2398.4375,4.59700520833333,14.35873626,11.6749149,-2.68382136,14.17515,-0.18358626,0,2.137272,20.625,-10,21.25,-1.5625,22.7450980392157,23.2705882352941,75.2,0,34.804,14.29935,183.2,89.6,62.5,56.25,62.5,57.8125,78.4313725490196,
14,2019-05-27,11:35:39.64901,0.67228,,14.9058,-1.7578125,-7.421875,-7.421875,-3.515625,2.2,0,57.8125,14.7,56.25,33,0,2406.25,4.41145833333333,14.35873626,11.6749149,-2.68382136,14.17515,-0.18358626,0,2.137272,20.625,-10,20.78125,-4.0625,22.7450980392157,23.2705882352941,75.2,0,34.804,14.29935,183.2,89.6,62.5,56.25,40.625,56.25,78.4313725490196,
15,2019-05-27,11:35:39.68025,0.7036,,14.9058,-1.7578125,-7.421875,-7.421875,-3.515625,2.3,0,56.25,14.7,56.25,34,0,2406.25,4.61197916666667,14.35873626,11.6749149,-2.68382136,14.17515,-0.18358626,0,2.039232,20.625,-10,20.78125,-4.0625,22.7450980392157,23.2705882352941,75.2,0,34.804,14.37268,183.2,89.6,65.625,0,57.8125,56.25,78.4313725490196,
16,2019-05-27,11:35:39.71149,0.7322,,14.9058,-1.5625,-7.421875,-7.421875,-3.515625,2.3,0,56.25,14.7,56.25,34,0,2414.0625,4.626953125,14.35873626,11.6749149,-2.68382136,14.17515,-0.18358626,0,2.039232,20,-10,20.78125,-4.6875,22.7450980392157,23.2705882352941,75.2,0,34.804,14.37268,183.2,89.6,65.625,0,51.5625,56.25,78.4313725490196,
17,2019-05-27,11:35:39.75836,0.77008,,14.9058,-1.5625,-7.421875,-7.421875,-3.515625,1.9,0,54.6875,14.7,54.6875,34,0,2414.0625,3.822265625,14.35873626,11.9643756,-2.39436066,14.5266,0.16786374,0,2.15688,20,-10,20.78125,-4.6875,23.1372549019608,23.2705882352941,75.2,0,34.804,14.37268,183.2,89.6,67.1875,0,59.375,54.6875,78.4313725490196,
18,2019-05-27,11:35:39.77399,0.79209,,14.9058,-1.5625,-7.421875,-7.421875,-3.515625,2.2,0,54.6875,14.7,54.6875,34,0,2414.0625,4.42578125,14.35873626,11.9643756,-2.39436066,14.5266,0.16786374,0,2.15688,19.375,-10,20.625,-5.46875,23.1372549019608,23.2705882352941,75.2,0,34.804,14.29935,181.4,89.6,67.1875,0,48.4375,53.125,78.4313725490196,
19,2019-05-27,11:35:39.82085,0.83701,,14.6265,-1.7578125,-7.421875,-7.421875,-3.515625,2.1,0,53.125,14.7,53.125,34,0,2414.0625,4.224609375,14.35873626,11.8678887,-2.49084756,14.40945,0.0507137399999991,0,2.078448,19.375,-10,20.625,-5.46875,23.1372549019608,23.2705882352941,75.2,0,34.804,14.29935,181.4,89.6,65.625,0,51.5625,53.125,78.4313725490196,
20,2019-05-27,11:35:39.83647,0.8595,,14.6265,-1.7578125,-7.421875,-7.421875,-3.515625,2.1,0,53.125,14.7,53.125,34,0,2421.875,4.23828125,14.35873626,11.8678887,-2.49084756,14.40945,0.0507137399999991,0,2.078448,19.375,-10,20.3125,-6.71875,23.1372549019608,23.2705882352941,75.2,0,34.804,14.29935,181.4,89.6,67.1875,0,48.4375,51.5625,78.4313725490196,
21,2019-05-27,11:35:39.86771,0.88199,,14.6265,-1.7578125,-7.421875,-7.421875,-3.515625,2.1,0,53.125,14.7,53.125,34,0,2421.875,4.23828125,14.35873626,11.9643756,-2.39436066,14.5266,0.16786374,0,2.078448,19.375,-10,20.3125,-6.71875,23.1372549019608,23.2705882352941,75.2,0,34.804,14.37268,181.4,89.6,67.1875,0,46.875,51.5625,78.4313725490196,
22,2019-05-27,11:35:39.89896,0.91439,,14.6265,-1.953125,-7.421875,-7.421875,-3.515625,2.1,0,51.5625,14.7,51.5625,35,0,2421.875,4.23828125,14.35873626,11.9643756,-2.39436066,14.5266,0.16786374,0,2.078448,19.375,-10,19.84375,-7.34375,23.1372549019608,23.2705882352941,75.2,0,34.804,14.37268,181.4,89.6,67.1875,0,56.25,53.125,78.4313725490196,
23,2019-05-27,11:35:39.93019,0.95188,,14.6265,-1.953125,-7.421875,-7.421875,-3.515625,2.1,0,53.125,14.7,51.5625,34,0,2429.6875,4.251953125,14.35873626,11.7714018,-2.58733446,14.2923,-0.0664362600000015,0,1.921584,19.375,-10,19.84375,-7.34375,22.7450980392157,22.7647058823529,75.2,0,34.804,14.37268,181.4,89.6,67.1875,0,43.75,50,78.4313725490196,
24,2019-05-27,11:35:39.96144,0.98422,,14.2737,-1.953125,-7.421875,-7.421875,-3.515625,2.1,0,50,14.7,51.5625,35,0,2437.5,4.265625,14.35873626,11.7714018,-2.58733446,14.2923,-0.0664362600000015,0,1.921584,18.75,-10,19.53125,-7.96875,22.7450980392157,22.7647058823529,75.2,0,34.804,14.37268,181.4,89.6,65.625,0,50,50,78.4313725490196,
25,2019-05-27,11:35:40.02392,1.03718,,14.2737,-2.34375,-7.421875,-7.421875,-3.515625,1.9,0,50,14.7,50,35,0,2429.6875,3.84700520833333,14.35873626,11.6749149,-2.68382136,14.17515,-0.18358626,0,2.078448,18.75,-10,19.53125,-7.96875,22.7450980392157,22.7647058823529,75.2,0,34.804,14.37268,181.4,89.6,64.0625,0,51.5625,48.4375,78.4313725490196,
26,2019-05-27,11:35:40.05519,1.0691,,14.2737,-2.34375,-7.421875,-7.421875,-3.515625,2.1,0,50,14.7,50,36,0,2445.3125,4.279296875,14.35873626,11.6749149,-2.68382136,14.17515,-0.18358626,0,2.078448,18.75,-10,19.375,-8.90625,22.7450980392157,22.7647058823529,75.2,0,34.804,14.37268,181.4,89.6,64.0625,0,46.875,48.4375,78.4313725490196,
27,2019-05-27,11:35:40.08641,1.11158,,14.2737,-2.34375,-7.421875,-7.421875,-3.515625,2,0,48.4375,14.7,48.4375,35,0,2445.3125,4.07552083333333,14.35873626,11.4819411,-2.87679516,13.94085,-0.417886260000001,0,1.980408,18.75,-10,19.375,-8.90625,22.7450980392157,22.7647058823529,75.2,0,34.804,14.37268,181.4,89.6,64.0625,0,46.875,50,78.4313725490196,
28,2019-05-27,11:35:40.13327,1.14674,,15.1998,-1.7578125,-7.421875,-7.421875,-3.515625,1.8,0,48.4375,14.7,48.4375,35,0,2437.5,3.65625,14.35873626,11.4819411,-2.87679516,13.94085,-0.417886260000001,0,1.980408,18.75,-10,19.0625,-9.53125,22.7450980392157,22.7647058823529,75.2,0,34.804,14.37268,181.4,89.6,64.0625,0,48.4375,48.4375,78.4313725490196,
29,2019-05-27,11:35:40.18014,1.1926,,15.1998,-1.7578125,-7.421875,-7.421875,-3.515625,2,0,48.4375,14.7,48.4375,36,0,2460.9375,4.1015625,14.35873626,11.578428,-2.78030826,14.058,-0.300736260000001,0,1.980408,18.75,-10,19.0625,-9.53125,22.7450980392157,22.7647058823529,75.2,0,34.804,14.37268,181.4,89.6,64.0625,0,45.3125,48.4375,78.4313725490196,
30,2019-05-27,11:35:40.19576,1.2208,,15.1998,-1.7578125,-7.421875,-7.421875,-3.515625,2,0,48.4375,14.7,48.4375,36,0,2453.125,4.08854166666667,14.35873626,11.578428,-2.78030826,14.058,-0.300736260000001,0,1.980408,18.125,-10,18.90625,-9.6875,22.7450980392157,22.7647058823529,75.2,0,34.804,14.37268,181.4,89.6,64.0625,0,51.5625,48.4375,78.4313725490196,
31,2019-05-27,11:35:40.24262,1.26156,,15.1998,-1.3671875,-7.421875,-7.421875,-3.515625,2.1,0,48.4375,14.7,48.4375,36,0,2437.5,4.265625,14.35873626,11.4819411,-2.87679516,13.94085,-0.417886260000001,0,1.921584,18.125,-10,18.90625,-9.6875,22.7450980392157,22.7647058823529,75.2,0,34.804,14.37268,181.4,89.6,64.0625,0,40.625,48.4375,78.4313725490196,
32,2019-05-27,11:35:40.27387,1.28901,,15.1998,-1.3671875,-7.421875,-7.421875,-3.515625,2,0,48.4375,14.7,48.4375,36,0,2445.3125,4.07552083333333,14.35873626,11.4819411,-2.87679516,13.94085,-0.417886260000001,0,1.921584,18.75,-10,18.90625,-10,22.7450980392157,22.7647058823529,75.2,0,34.804,14.37268,181.4,89.6,64.0625,0,50,48.4375,78.8235294117647,
33,2019-05-27,11:35:40.30510,1.32717,,15.6702,-1.3671875,-7.421875,-7.421875,-3.515625,2.1,0,48.4375,14.7,48.4375,36,0,2453.125,4.29296875,14.35873626,11.3854542,-2.97328206,13.8237,-0.53503626,0,2.000016,18.75,-10,18.90625,-10,22.7450980392157,22.7647058823529,75.2,0,34.804,14.29935,181.4,87.8,64.0625,0,42.1875,48.4375,78.4313725490196,
34,2019-05-27,11:35:40.33635,1.36116,,15.6702,-0.78125,-7.421875,-7.421875,-3.515625,2,0,48.4375,14.7,48.4375,36,0,2468.75,4.11458333333333,14.35873626,11.3854542,-2.97328206,13.8237,-0.53503626,0,2.000016,18.75,-10,18.59375,-10.15625,22.7450980392157,22.7647058823529,75.2,0,34.804,14.29935,181.4,87.8,64.0625,0,46.875,46.875,78.4313725490196,
35,2019-05-27,11:35:40.36760,1.39119,,15.6702,-0.78125,-7.421875,-7.421875,-3.515625,2.1,0,48.4375,14.7,48.4375,36,0,2460.9375,4.306640625,14.35873626,11.3854542,-2.97328206,13.8237,-0.53503626,0,1.882368,18.75,-10,18.59375,-10.15625,22.3529411764706,22.7647058823529,75.2,0,34.804,14.29935,181.4,87.8,64.0625,0,45.3125,46.875,78.4313725490196,
36,2019-05-27,11:35:40.39883,1.42225,,15.6702,-0.78125,-7.421875,-7.421875,-3.515625,2.1,0,46.875,14.7,46.875,36,0,2468.75,4.3203125,14.35873626,11.3854542,-2.97328206,13.8237,-0.53503626,0,1.882368,18.75,-10,18.59375,-10.46875,22.3529411764706,22.7647058823529,75.2,0,34.804,14.37268,181.4,87.8,64.0625,0,46.875,46.875,78.4313725490196,
37,2019-05-27,11:35:40.44570,1.46873,,15.6702,-0.1953125,-7.421875,-7.421875,-3.515625,2.1,0,48.4375,14.7,48.4375,36,0,2476.5625,4.333984375,14.35873626,11.4819411,-2.87679516,13.94085,-0.417886260000001,0,2.078448,18.75,-10,18.59375,-10.46875,22.3529411764706,22.7647058823529,75.2,0,34.804,14.37268,181.4,87.8,62.5,0,45.3125,46.875,78.4313725490196,
38,2019-05-27,11:35:40.47694,1.49879,,15.6702,-0.1953125,-7.421875,-7.421875,-3.515625,2.1,0,46.875,14.7,46.875,36,0,2460.9375,4.306640625,14.35873626,11.4819411,-2.87679516,13.94085,-0.417886260000001,0,2.078448,18.75,-10,18.59375,-10.625,22.7450980392157,22.7647058823529,75.2,0,34.804,14.37268,181.4,87.8,64.0625,0,45.3125,46.875,78.4313725490196,
39,2019-05-27,11:35:40.50818,1.52337,,15.6702,-0.1953125,-7.421875,-7.421875,-3.515625,2.1,0,46.875,14.7,46.875,36,0,2468.75,4.3203125,14.35873626,11.4819411,-2.87679516,13.94085,-0.417886260000001,0,1.882368,18.75,-10,18.59375,-10.625,22.7450980392157,22.7647058823529,75.2,0,34.804,14.37268,181.4,87.8,62.5,0,45.3125,46.875,78.4313725490196,
40,2019-05-27,11:35:40.53942,1.55337,,15.6702,0.390625,-7.421875,-7.421875,-3.515625,2.1,0,46.875,14.7,46.875,37,0,2484.375,4.34765625,14.35873626,11.4819411,-2.87679516,13.94085,-0.417886260000001,0,1.882368,18.75,-10,18.59375,-10.625,22.7450980392157,22.7647058823529,75.2,0,34.804,14.37268,181.4,87.8,62.5,0,48.4375,46.875,78.4313725490196,
41,2019-05-27,11:35:40.55505,1.58219,,15.6702,0.390625,-7.421875,-7.421875,-3.515625,2.1,0,46.875,14.7,46.875,36,0,2484.375,4.34765625,14.35873626,11.3854542,-2.97328206,13.8237,-0.53503626,0,1.980408,18.75,-10,18.59375,-10.625,22.3529411764706,22.7647058823529,75.2,0,34.804,14.37268,181.4,87.8,62.5,0,42.1875,46.875,78.4313725490196,
42,2019-05-27,11:35:40.60200,1.61595,,15.6702,0.390625,-7.421875,-7.421875,-3.515625,2,0,46.875,14.7,46.875,37,0,2476.5625,4.12760416666667,14.35873626,11.3854542,-2.97328206,13.8237,-0.53503626,0,1.980408,18.75,-10,18.59375,-10.625,22.3529411764706,22.7647058823529,75.2,0,34.804,14.37268,181.4,87.8,62.5,0,45.3125,46.875,78.4313725490196,
43,2019-05-27,11:35:40.63315,1.64899,,15.6996,0.9765625,-7.421875,-7.421875,-3.515625,2.1,0,46.875,14.7,46.875,37,0,2476.5625,4.333984375,14.35873626,11.3854542,-2.97328206,13.8237,-0.53503626,0,2.000016,18.75,-10,18.59375,-10.625,22.3529411764706,22.7647058823529,75.2,0,34.804,14.37268,181.4,87.8,62.5,0,43.75,46.875,78.4313725490196,
44,2019-05-27,11:35:40.66439,1.68073,,15.6996,0.9765625,-7.421875,-7.421875,-3.515625,2,0,46.875,14.7,45.3125,37,0,2492.1875,4.15364583333333,14.35873626,11.3854542,-2.97328206,13.8237,-0.53503626,0,2.000016,18.75,-10,18.75,-10.46875,22.3529411764706,22.7647058823529,75.2,0,34.804,14.37268,181.4,87.8,62.5,0,48.4375,45.3125,78.4313725490196,
45,2019-05-27,11:35:40.69564,1.71179,,15.6996,0.9765625,-7.421875,-7.421875,-3.515625,2.1,0,45.3125,14.7,45.3125,37,0,2492.1875,4.361328125,14.35873626,11.2889673,-3.06976896,13.70655,-0.652186260000001,0,1.941192,18.75,-10,18.75,-10.46875,22.3529411764706,22.7647058823529,75.2,0,34.804,14.37268,181.4,87.8,62.5,0,48.4375,46.875,78.4313725490196,
46,2019-05-27,11:35:40.72688,1.74801,,15.6996,1.3671875,-7.421875,-7.421875,-3.515625,2.1,0,46.875,14.7,46.875,37,0,2484.375,4.34765625,14.35873626,11.2889673,-3.06976896,13.70655,-0.652186260000001,0,1.941192,19.375,-10,18.59375,-10.625,22.3529411764706,22.7647058823529,75.2,0,34.804,14.37268,181.4,87.8,62.5,0,45.3125,46.875,78.4313725490196,
47,2019-05-27,11:35:40.74251,1.76561,,15.6996,1.3671875,-7.421875,-7.421875,-3.515625,2.1,0,46.875,14.7,46.875,37,0,2484.375,4.34765625,14.35873626,11.2889673,-3.06976896,13.70655,-0.652186260000001,0,2.039232,19.375,-10,18.59375,-10.625,22.3529411764706,22.7647058823529,75.2,0,34.804,14.37268,181.4,87.8,62.5,0,46.875,46.875,78.4313725490196,
48,2019-05-27,11:35:40.77375,1.7905,,15.2292,1.3671875,-7.421875,-7.421875,-3.515625,2.1,0,46.875,14.7,46.875,37,0,2500,4.375,14.35873626,11.2889673,-3.06976896,13.70655,-0.652186260000001,0,2.039232,19.375,-10,18.59375,-10.78125,22.3529411764706,22.7647058823529,75.2,0,34.804,14.37268,181.4,87.8,62.5,0,48.4375,46.875,78.4313725490196,
49,2019-05-27,11:35:40.80499,1.82322,,15.2292,1.953125,-7.421875,-7.421875,-3.515625,2.1,0,46.875,14.7,46.875,37,0,2507.8125,4.388671875,14.35873626,11.2889673,-3.06976896,13.70655,-0.652186260000001,0,1.9608,19.375,-10,18.59375,-10.78125,22.3529411764706,22.7647058823529,75.2,0,34.804,14.37268,181.4,87.8,62.5,0,45.3125,46.875,78.4313725490196,
50,2019-05-27,11:35:40.83623,1.85153,,15.2292,1.953125,-7.421875,-7.421875,-3.515625,2,0,46.875,14.7,46.875,37,0,2500,4.16666666666667,14.35873626,11.2889673,-3.06976896,13.70655,-0.652186260000001,0,1.9608,18.75,-10,18.75,-10.625,22.3529411764706,22.7647058823529,75.2,0,34.804,14.37268,181.4,87.8,60.9375,0,48.4375,46.875,78.4313725490196,
51,2019-05-27,11:35:40.86747,1.88781,,15.2292,1.953125,-7.421875,-7.421875,-3.515625,2.1,0,46.875,14.7,46.875,37,0,2492.1875,4.361328125,14.35873626,11.1924804,-3.16625586,13.5894,-0.769336260000001,0,2.000016,18.75,-10,18.75,-10.625,22.3529411764706,22.7647058823529,75.2,0,36.047,14.37268,181.4,87.8,62.5,0,43.75,45.3125,78.4313725490196,
52,2019-05-27,11:35:40.89871,1.91778,,15.2292,2.5390625,-7.421875,-7.421875,-3.515625,2.1,0,46.875,14.7,46.875,37,0,2500,4.375,14.35873626,11.1924804,-3.16625586,13.5894,-0.769336260000001,0,2.000016,18.75,-10,18.90625,-10.46875,22.3529411764706,22.7647058823529,75.2,0,36.047,14.37268,181.4,87.8,62.5,0,45.3125,45.3125,78.4313725490196,
53,2019-05-27,11:35:40.92997,1.94262,,15.2292,2.5390625,-7.421875,-7.421875,-3.515625,2.1,0,46.875,14.7,46.875,37,0,2507.8125,4.388671875,14.35873626,11.1924804,-3.16625586,13.5894,-0.769336260000001,0,1.901976,18.75,-10,18.90625,-10.46875,21.9607843137255,22.2588235294118,75.2,0,36.047,14.37268,181.4,87.8,62.5,0,42.1875,45.3125,78.4313725490196,
54,2019-05-27,11:35:40.96120,1.97519,,15.1263,2.5390625,-7.421875,-7.421875,-3.515625,2,0,45.3125,14.7,45.3125,37,0,2507.8125,4.1796875,14.35873626,11.1924804,-3.16625586,13.5894,-0.769336260000001,0,1.901976,18.75,-10,18.90625,-10.46875,21.9607843137255,22.2588235294118,75.2,0,36.047,14.37268,181.4,87.8,60.9375,0,46.875,45.3125,78.4313725490196,
55,2019-05-27,11:35:40.99244,2.01556,,15.1263,2.9296875,-7.421875,-7.421875,-3.515625,2.1,0,45.3125,14.7,45.3125,37,0,2500,4.375,14.35873626,10.9995066,-3.35922966,13.3551,-1.00363626,0,1.941192,18.75,-10,18.90625,-10.46875,21.9607843137255,22.2588235294118,75.2,0,36.047,14.37268,181.4,87.8,60.9375,0,42.1875,43.75,78.8235294117647,
56,2019-05-27,11:35:41.02369,2.04756,,15.1263,2.9296875,-7.421875,-7.421875,-3.515625,2,0,43.75,14.7,43.75,37,0,2515.625,4.19270833333333,14.35873626,10.9995066,-3.35922966,13.3551,-1.00363626,0,1.941192,18.75,-10,18.90625,-10.46875,22.3529411764706,22.7647058823529,75.2,0,36.047,14.37268,181.4,87.8,60.9375,0,43.75,45.3125,78.4313725490196,
57,2019-05-27,11:35:41.07056,2.08245,,15.1263,2.9296875,-7.421875,-7.421875,-3.515625,2.1,0,45.3125,14.7,45.3125,37,0,2523.4375,4.416015625,14.35873626,10.9995066,-3.35922966,13.3551,-1.00363626,0,2.000016,18.75,-10,18.90625,-10.46875,22.3529411764706,22.7647058823529,75.2,0,36.047,14.37268,181.4,87.8,60.9375,0,50,45.3125,78.4313725490196,
58,2019-05-27,11:35:41.08626,2.1052,,15.1263,3.515625,-7.421875,-7.421875,-3.515625,2.1,0,45.3125,14.7,45.3125,37,0,2523.4375,4.416015625,14.35873626,10.9995066,-3.35922966,13.3551,-1.00363626,0,2.000016,19.375,-10,18.75,-10.625,22.3529411764706,22.7647058823529,75.2,0,36.047,14.37268,181.4,87.8,60.9375,0,45.3125,45.3125,78.4313725490196,
59,2019-05-27,11:35:41.11751,2.13266,,15.0087,3.515625,-7.421875,-7.421875,-3.515625,2.1,0,45.3125,14.7,45.3125,37,0,2523.4375,4.416015625,14.35873626,11.4819411,-2.87679516,13.94085,-0.417886260000001,0,2.25492,19.375,-10,18.75,-10.625,27.4509803921569,35.4117647058824,75.2,0,36.047,14.37268,181.4,87.8,60.9375,0,64.0625,48.4375,78.4313725490196,
60,2019-05-27,11:35:41.14866,2.17015,,15.0087,3.515625,-7.421875,-7.421875,-3.515625,2.5,0,51.5625,14.7,56.25,36,0,2515.625,5.24088541666667,14.35873626,11.4819411,-2.87679516,13.94085,-0.417886260000001,0,2.25492,21.875,-10,18.75,-10.625,27.4509803921569,35.4117647058824,75.2,0,36.047,14.29935,181.4,87.8,71.875,0,109.375,65.625,78.4313725490196,
61,2019-05-27,11:35:41.19552,2.21966,,15.0087,4.1015625,-7.421875,-7.421875,-3.515625,3.3,0,65.625,14.7,71.875,34,0,2539.0625,6.982421875,14.35873626,15.0519564,0.693220139999999,18.2754,3.91666374,0,2.235312,21.875,-10,18.75,-10.625,27.4509803921569,35.4117647058824,75.2,0,36.047,14.29935,181.4,87.8,93.75,0,93.75,78.125,78.4313725490196,
62,2019-05-27,11:35:41.24239,2.25535,,15.0087,4.1015625,-7.421875,-7.421875,-3.515625,3.4,0,78.125,14.7,79.6875,26,0,2554.6875,7.23828125,14.35873626,15.0519564,0.693220139999999,18.2754,3.91666374,0,2.235312,18.75,0,19.53125,-1.09375,65.4901960784314,91.0588235294118,75.2,0,36.047,14.29935,181.4,87.8,98.4375,0,85.9375,81.25,78.4313725490196,
63,2019-05-27,11:35:41.27363,2.29976,,14.7588,4.1015625,-7.421875,-7.421875,-3.515625,3.3,0,81.25,14.7,82.8125,25,0,2546.875,7.00390625,14.35873626,15.5343909,1.17565464,18.86115,4.50241374,11,1.86276,18.75,0,19.53125,-1.09375,65.4901960784314,91.0588235294118,75.2,0,36.047,14.29935,181.4,87.8,100,0,85.9375,84.375,78.8235294117647,
64,2019-05-27,11:35:41.32049,2.33969,,14.7588,0,-7.421875,-7.421875,-3.515625,3.3,0,84.375,14.5860465116279,84.375,24,0,2539.0625,6.982421875,14.35873626,15.5343909,1.17565464,18.86115,4.50241374,11,1.86276,16.875,0,20.3125,-0.15625,65.4901960784314,91.0588235294118,75.2,0,36.047,14.29935,181.4,87.8,100,0,87.5,84.375,78.4313725490196,
65,2019-05-27,11:35:41.35173,2.37783,,14.7588,0,-7.421875,-7.421875,-3.515625,3.4,0,84.375,14.5860465116279,84.375,24,0,2562.5,7.26041666666667,14.35873626,15.6308778,1.27214154,18.9783,4.61956374,11,2.019624,16.875,0,20.3125,-0.15625,87.4509803921569,100.164705882353,75.2,0,36.047,14.29935,181.4,87.8,100,0,90.625,85.9375,78.8235294117647,
66,2019-05-27,11:35:41.39860,2.41589,,14.7588,0,-7.421875,-7.421875,-3.515625,3.4,0,85.9375,14.5860465116279,85.9375,23,0,2570.3125,7.28255208333333,14.35873626,15.6308778,1.27214154,18.9783,4.61956374,11,2.019624,16.25,0,19.0625,-0.625,87.4509803921569,100.164705882353,75.2,0,36.047,14.22602,181.4,87.8,100,0,92.1875,87.5,78.8235294117647,
67,2019-05-27,11:35:41.44546,2.45974,,12.1716,0,-7.421875,-7.421875,-3.515625,3.4,0,87.5,14.4738461538462,87.5,23,0,2562.5,7.26041666666667,14.35873626,15.7273647,1.36862844,19.09545,4.73671374,11,2.470608,16.25,0,19.0625,-0.625,87.4509803921569,100.164705882353,75.2,0,36.047,14.22602,181.4,87.8,101.5625,0,85.9375,85.9375,78.4313725490196,
68,2019-05-27,11:35:41.47680,2.49202,,12.1716,0,-7.421875,-7.421875,-3.515625,3.3,0,87.5,14.5860465116279,87.5,23,0,2570.3125,7.068359375,14.35873626,15.7273647,1.36862844,19.09545,4.73671374,11,2.470608,15.625,0,18.59375,-0.46875,87.4509803921569,100.670588235294,75.2,0,36.047,14.22602,181.4,87.8,101.5625,0,89.0625,87.5,78.4313725490196,